Flag Weather past 2 weeks in Bad Hersfeld, Hesse, Germany

Now
37 °F

Passing clouds.


Feels Like: 37 °F
Forecast: 31 / 40 °F
Wind: 2 mph from East

Location: Fritzlar Airport

Current Time: Nov 26, 2014 at 10:56:44 PM

Latest Report: Nov 26, 2014 at 9:20 PM


Visibility: N/A

Pressure: 30.01 "Hg

Humidity: 87%

Dew point: 34 °F

Location of Bad HersfeldLocation

Historic Weather in Bad Hersfeld — Graph

°F

Bad Hersfeld temperature yesterday

Maximum temperature yesterday: 41 °F (at 10:20 PM)
Minimum temperature yesterday: 28 °F (at 1:20 AM)
Average temperature yesterday: 34 °F

Past Weeks' High & Low Weather Summary

 TemperatureHumidityPressure
High54 °F (Nov 14, 12:20 PM)100% (Nov 12, 9:20 AM)30.36 "Hg (Nov 12, 9:20 AM)
Low28 °F (Nov 25, 1:20 AM)62% (Nov 24, 2:20 PM)29.50 "Hg (Nov 16, 4:20 AM)
Average43 °F90%29.98 "Hg
* Reported Nov 11 9:20 PM — Nov 26 9:20 PM, Bad Hersfeld, Weather by CustomWeather, © 2014

Note: Actual official high and low records may vary slightly from our data, if they occured in-between our weather recording intervals... More about our weather records

Advertising

Bad Hersfeld weather history for previous 24 hours

 ConditionsComfort  
Time TempWeatherWind HumidityBarometerVisibility
9:20 PM
Nov 26
37 °FPassing clouds.2 mph87%30.01 "HgN/A
8:20 PM37 °FPassing clouds.2 mph87%30.01 "HgN/A
7:20 PM37 °FPassing clouds.3 mph81%30.01 "HgN/A
6:20 PM37 °FPassing clouds.5 mph81%30.01 "HgN/A
5:20 PM37 °FPartly cloudy.6 mph81%30.04 "HgN/A
4:20 PM39 °FBroken clouds.6 mph75%30.04 "HgN/A
4:02 PM39 °FBroken clouds.6 mph75%30.04 "HgN/A
3:20 PM39 °FBroken clouds.7 mph75%30.04 "HgN/A
2:20 PM39 °FBroken clouds.6 mph75%30.04 "HgN/A
1:20 PM37 °FScattered clouds.7 mph81%30.07 "HgN/A
12:20 PM39 °FScattered clouds.6 mph75%30.07 "HgN/A
11:20 AM39 °FPartly sunny.7 mph75%30.09 "HgN/A
10:20 AM39 °FPartly sunny.3 mph75%30.12 "HgN/A
9:20 AM36 °FPartly sunny.6 mph87%30.12 "HgN/A
8:20 AM32 °FScattered clouds.2 mph93%30.12 "HgN/A
7:20 AM32 °FPassing clouds.3 mph93%30.12 "HgN/A
6:20 AM34 °FPassing clouds.5 mph87%30.12 "HgN/A
5:20 AM36 °FPassing clouds.9 mph87%30.12 "HgN/A
4:20 AM36 °FPassing clouds.3 mph87%30.12 "HgN/A
3:20 AM39 °FPassing clouds.3 mph87%30.15 "HgN/A
2:20 AM39 °FPassing clouds.5 mph87%30.15 "HgN/A
1:20 AM39 °FPassing clouds.6 mph87%30.18 "HgN/A
12:20 AM39 °FPassing clouds.9 mph87%30.21 "HgN/A
11:20 PM
Nov 25
41 °FPassing clouds.10 mph81%30.21 "HgN/A
10:20 PM41 °FPassing clouds.8 mph87%30.21 "HgN/A
Weather by CustomWeather, © 2014

See weather overviewHow to use our weather pages